DW1996 Weather Reports


Display with metric or nautical units.
time (UTC)temp
F
wind
direction
speed
MPH
gust
MPH
rain 1hr
in
rain 24hr
in
rain mn
in
humidity
%
barometer
mb
20260506190045 90 199 9.0 16.0 0.00 0.00 0.00 72 1005.8
20260506184550 90 161 8.0 15.0 0.00 0.00 0.00 73 1005.9
20260506183041 89 211 8.0 13.0 0.00 0.00 0.00 75 1006.0
20260506181540 88 149 8.0 18.0 0.00 0.00 0.00 76 1006.2
20260506180039 88 196 8.0 16.0 0.00 0.00 0.00 75 1006.4
20260506174536 88 153 8.0 15.0 0.00 0.00 0.00 75 1006.4
20260506173039 87 159 9.0 15.0 0.00 0.00 0.00 77 1006.6
20260506171542 86 155 8.0 15.0 0.00 0.00 0.00 78 1006.9
20260506170030 86 169 8.0 13.0 0.00 0.00 0.00 76 1007.0
20260506164529 87 177 8.0 17.0 0.00 0.00 0.00 76 1006.8
20260506163038 85 216 9.0 16.0 0.00 0.00 0.00 78 1006.8
20260506161527 86 174 8.0 12.0 0.00 0.00 0.00 77 1006.8
20260506160027 86 182 7.0 11.0 0.00 0.00 0.00 78 1006.5
20260506154530 86 142 5.0 13.0 0.00 0.00 0.00 78 1006.5
20260506153022 85 185 7.0 11.0 0.00 0.00 0.00 79 1006.4
20260506151518 83 183 4.0 7.0 0.00 0.00 0.00 82 1006.6
20260506150015 83 157 2.0 6.0 0.00 0.00 0.00 83 1007.0
20260506144513 82 192 4.0 7.0 0.00 0.00 0.00 84 1007.0
20260506143015 82 192 1.0 9.0 0.00 0.00 0.00 85 1007.1
20260506141507 81 202 2.0 8.0 0.00 0.00 0.00 87 1007.1
20260506140004 80 195 1.0 6.0 0.00 0.00 0.00 87 1007.1
20260506134501 80 205 1.0 8.0 0.00 0.00 0.00 88 1007.0
20260506133103 80 195 3.0 9.0 0.00 0.00 0.00 88 1006.7
20260506131558 80 178 3.0 9.0 0.00 0.00 0.00 88 1006.5
20260506130056 79 192 4.0 9.0 0.00 0.00 0.00 89 1006.4
20260506124554 79 195 4.0 13.0 0.00 0.00 0.00 89 1006.0
20260506123052 79 177 5.0 13.0 0.00 0.00 0.00 89 1005.7
20260506121551 79 178 5.0 11.0 0.00 0.00 0.00 89 1005.5
20260506120107 79 182 2.0 15.0 0.00 0.00 0.00 89 1005.2
20260506114603 79 154 6.0 13.0 0.00 0.00 0.00 89 1004.9
20260506113049 79 184 6.0 16.0 0.00 0.00 0.00 89 1004.6
20260506111552 79 180 5.0 14.0 0.00 0.00 0.00 89 1004.4
20260506110048 79 160 9.0 14.0 0.00 0.00 0.00 89 1004.3
20260506104547 79 164 7.0 12.0 0.00 0.00 0.00 89 1004.4
20260506103043 79 191 7.0 12.0 0.00 0.00 0.00 89 1004.4
20260506101542 79 164 5.0 11.0 0.00 0.00 0.00 89 1004.5
20260506100043 79 192 6.0 15.0 0.00 0.00 0.00 89 1004.5
20260506094544 79 180 6.0 16.0 0.00 0.00 0.00 89 1004.4
20260506093100 79 127 6.0 13.0 0.00 0.00 0.00 89 1004.5
20260506091536 79 163 3.0 11.0 0.00 0.00 0.00 89 1004.6
20260506090039 78 132 7.0 14.0 0.00 0.00 0.00 89 1004.4
20260506084532 78 161 5.0 16.0 0.00 0.00 0.00 89 1004.6
20260506083031 78 127 7.0 14.0 0.00 0.00 0.00 89 1004.8
20260506081528 78 148 4.0 16.0 0.00 0.00 0.00 88 1004.8
20260506073021 79 144 6.0 14.0 0.00 0.00 0.00 88 1005.4
20260506071518 79 148 6.0 15.0 0.00 0.00 0.00 88 1005.6
20260506061509 79 163 6.0 16.0 0.00 0.00 0.00 87 1006.2
20260506044551 80 180 7.0 14.0 0.00 0.00 0.00 86 1007.0
20260506043052 80 155 4.0 10.0 0.00 0.00 0.00 86 1006.9
20260506041603 80 147 4.0 12.0 0.00 0.00 0.00 85 1006.9
20260506040052 80 169 6.0 11.0 0.00 0.00 0.00 85 1006.9
20260506034546 80 158 7.0 15.0 0.00 0.00 0.00 85 1006.6
20260506033049 80 166 7.0 14.0 0.00 0.00 0.00 86 1006.5
20260506031547 80 180 7.0 15.0 0.00 0.00 0.00 86 1006.2
20260506030043 80 161 7.0 17.0 0.00 0.00 0.00 86 1006.0
20260506024542 80 186 8.0 12.0 0.00 0.00 0.00 86 1005.8
20260506023051 80 138 8.0 15.0 0.00 0.00 0.00 86 1005.6
20260506021542 80 218 9.0 15.0 0.00 0.00 0.00 85 1005.3
20260506020110 80 161 11.0 16.0 0.00 0.00 0.00 85 1004.9
20260506014541 80 169 10.0 19.0 0.00 0.00 0.00 85 1004.7
20260506013040 80 178 8.0 16.0 0.00 0.00 0.00 85 1004.5
20260506011545 80 153 11.0 20.0 0.00 0.00 0.00 85 1004.1
20260506010039 80 194 8.0 17.0 0.00 0.00 0.00 84 1004.0
20260506004542 81 153 12.0 19.0 0.00 0.00 0.00 84 1004.0
20260506003038 81 155 14.0 22.0 0.00 0.00 0.00 83 1003.9
20260506001545 81 159 11.0 22.0 0.00 0.00 0.00 82 1003.9
20260506000053 82 159 9.0 17.0 0.00 0.00 0.00 81 1003.9
20260505234540 82 162 11.0 22.0 0.00 0.00 0.00 81 1003.9
20260505233036 82 176 8.0 17.0 0.00 0.00 0.00 80 1003.9
20260505231535 82 164 12.0 21.0 0.00 0.00 0.00 80 1004.0
20260505230134 83 173 11.0 22.0 0.00 0.00 0.00 78 1004.0
20260505224541 83 164 10.0 22.0 0.00 0.00 0.00 78 1004.2
20260505223036 83 182 10.0 21.0 0.00 0.00 0.00 78 1004.3
20260505221529 83 170 12.0 22.0 0.00 0.00 0.00 77 1004.4
20260505220028 84 198 13.0 21.0 0.00 0.00 0.00 76 1004.4
20260505214527 84 181 12.0 25.0 0.00 0.00 0.00 76 1004.5
20260505213028 84 153 14.0 24.0 0.00 0.00 0.00 75 1004.5
20260505211531 85 186 8.0 21.0 0.00 0.00 0.00 74 1004.6
20260505210024 85 208 10.0 18.0 0.00 0.00 0.00 75 1004.8
20260505204523 85 169 12.0 21.0 0.00 0.00 0.00 74 1004.9
20260505203021 85 148 11.0 19.0 0.00 0.00 0.00 74 1005.2
20260505201519 85 167 10.0 19.0 0.00 0.00 0.00 74 1005.4
20260505200018 85 182 14.0 22.0 0.00 0.00 0.00 73 1005.7
20260505194516 86 173 13.0 21.0 0.00 0.00 0.00 72 1005.7
20260505193014 87 181 11.0 21.0 0.00 0.00 0.00 71 1005.9